SCP
0 0 0 0 0 0 0 0 0 0 0 0 0 0 0 -0 -0 0 0 0 0 0 0 0 0 1 1 1 1 1 0 0 0 0 0 0 0 0 0 0 0 0 0
1 0 0 0 0 0 0 0 0 0 0 0 0 0 0 0 0 0 0 0 0 0 0 0 0 1 2 1 1 1 0 0 0 0 0 0 0 0 0 0 0 0 0
1 1 0 0 0 0 0 0 0 0 0 0 0 0 0 0 0 0 0 0 0 0 0 0 0 1 1 1 1 1 1 0 0 0 0 0 0 0 0 0 0 0 0
2 2 1 1 0 0 0 0 0 0 0 0 1 1 1 0 0 0 0 0 -0 -0 -0 0 0 1 1 1 1 1 1 1 0 0 0 0 0 0 0 0 0 0 0
2 2 2 1 1 1 1 0 0 0 0 1 1 1 1 1 1 0 0 0 0 -0 -0 -0 -0 0 0 1 1 1 1 1 0 0 0 0 0 0 0 0 0 0 0
2 3 2 3 2 1 1 1 0 0 1 1 1 1 1 1 1 1 0 0 0 -0 -1 -1 -1 -0 0 1 1 1 1 1 1 0 0 0 0 0 0 0 0 0 0
3 4 4 3 3 2 1 1 1 1 1 1 1 1 1 1 1 1 1 2 1 0 -0 -2 -2 -0 -0 0 0 0 1 1 1 1 0 0 0 0 0 0 0 0 0
1 2 4 4 2 2 2 2 2 1 1 2 2 1 2 2 1 1 1 1 1 0 0 -0 0 0 -0 1 1 0 0 0 0 1 0 0 0 0 0 0 0 0 0
2 1 2 3 4 3 3 4 4 5 4 3 2 5 2 2 2 1 1 0 0 0 0 1 1 0 -0 1 1 1 0 0 0 1 1 0 0 0 0 0 0 0 0
3 2 3 3 3 5 5 4 6 6 6 8 2 1 2 2 1 1 2 1 1 1 0 0 0 0 -0 0 1 1 0 0 0 0 1 1 1 1 0 0 0 0 0
3 3 3 4 4 4 3 3 2 1 1 0 0 1 1 1 1 1 0 0 0 1 -0 0 0 0 1 1 1 1 1 0 0 0 0 1 1 1 1 0 0 0 0
6 5 4 4 5 4 4 3 1 0 0 0 0 0 1 1 1 0 0 0 1 0 -0 -0 0 1 1 1 1 0 0 0 0 0 0 0 0 0 1 1 0 0 0
7 6 5 4 4 4 5 5 3 1 0 1 0 1 2 1 1 2 1 0 0 0 -0 0 0 1 1 1 1 0 0 0 0 0 0 0 0 0 0 0 0 0 0
5 5 4 4 4 3 3 4 4 3 2 2 1 1 1 1 1 -0 1 0 0 0 0 0 1 1 1 1 1 0 0 0 0 0 0 0 0 0 0 0 0 0 0
2 2 3 3 4 4 4 5 4 4 3 3 2 2 1 1 2 2 1 1 2 0 0 0 1 1 0 -0 1 1 1 0 0 0 0 0 0 0 0 0 0 0 0
2 2 3 3 4 4 5 5 3 3 3 3 2 2 2 2 2 1 1 1 1 1 0 1 0 0 0 0 0 0 0 0 0 0 0 0 0 0 0 0 0 0 0
2 2 3 4 4 3 2 2 1 1 1 1 1 1 1 2 2 2 2 2 1 1 0 0 0 0 1 0 0 0 0 0 0 0 0 0 0 0 0 0 0 0 0
2 2 3 2 1 0 0 0 0 0 0 0 0 1 1 1 2 2 2 2 1 1 0 0 0 0 1 0 0 0 0 0 0 0 0 0 0 0 0 0 0 0 0
2 3 2 1 0 0 0 0 0 0 0 0 0 0 0 0 0 0 0 1 2 1 1 1 0 1 0 0 0 0 0 0 0 0 0 0 0 0 0 0 0 0 0
1 1 1 0 0 0 0 0 0 0 0 0 0 0 0 0 0 0 0 0 1 2 1 1 0 1 1 0 0 0 0 0 0 0 0 0 0 0 0 0 0 0 0
1 1 0 0 0 0 0 0 0 0 0 0 0 0 0 0 0 0 0 0 0 1 1 1 1 1 0 0 0 0 0 0 0 0 0 0 0 0 0 0 0 0 0
1 1 0 0 0 0 0 0 0 0 0 0 0 0 0 0 0 0 0 0 0 0 0 0 0 0 0 0 0 0 0 0 0 0 0 0 0 0 0 0 0 0 0
1 0 0 0 0 0 0 0 0 0 0 0 0 0 0 0 0 0 0 0 0 0 0 0 0 1 0 0 0 0 0 0 0 0 0 0 0 0 0 0 0 0 0
1 0 0 0 0 0 0 0 0 0 0 0 0 0 0 0 0 0 0 0 0 0 0 0 0 0 1 1 0 0 0 0 0 0 0 0 0 0 0 0 0 0 0
0 0 0 0 0 0 0 0 0 0 0 0 0 0 0 0 0 0 0 0 0 -0 0 0 0 0 0 0 0 0 0 0 0 0 0 0 0 0 0 0 0 0 0
0 0 0 0 0 0 0 0 0 0 0 0 -0 0 0 0 0 -0 0 0 0 -0 0 0 0 0 0 0 0 0 0 0 0 0 0 0 0 0 0 0 0 0 0
Wind_Speed_500mb
63 57 54 48 43 38 32 26 21 17 16 17 15 13 10 11 11 12 14 15 17 21 20 20 20 17 15 14 13 17 17 20 20 24 27 26 24 25 26 25 25 25 30
66 63 59 52 47 42 36 30 25 25 23 23 22 19 15 15 15 17 18 18 17 19 20 22 23 20 19 16 17 17 19 21 21 22 28 27 28 28 29 30 29 28 28
70 65 60 55 51 46 41 37 32 29 27 27 26 24 22 22 22 17 19 23 23 19 18 25 28 28 25 22 22 22 22 22 24 24 26 28 29 30 32 33 33 33 29
74 69 65 59 53 46 44 42 39 40 36 34 30 27 29 28 24 20 26 29 20 12 13 26 31 32 32 28 25 25 24 22 23 23 21 26 32 33 34 34 36 37 35
71 68 64 60 54 53 50 47 48 48 45 40 37 34 32 31 26 19 18 14 12 13 25 41 28 30 30 33 33 29 27 24 23 23 24 23 26 34 37 38 37 39 37
62 71 67 60 56 62 58 54 53 50 46 46 41 38 34 32 25 20 13 3 15 19 32 53 43 43 35 37 42 35 33 32 28 28 28 25 26 32 36 37 36 36 38
85 93 75 68 59 65 67 60 50 49 46 43 37 30 28 28 21 17 13 1 8 11 29 47 62 63 60 43 40 39 37 35 35 34 32 29 28 32 32 34 39 39 39
79 81 71 73 60 49 67 71 60 51 49 44 28 26 11 14 19 13 23 25 21 27 36 46 55 56 73 50 41 36 40 36 36 35 34 34 29 29 34 35 39 40 41
75 74 70 64 58 62 58 50 52 54 45 38 34 26 10 9 15 10 12 17 27 34 39 51 44 46 64 49 48 39 39 34 35 39 36 37 31 30 29 32 36 40 42
65 61 61 60 60 67 70 65 59 49 43 38 37 41 29 29 12 19 31 40 48 51 62 66 68 55 63 60 41 34 36 40 39 40 37 38 34 29 28 29 34 38 38
68 65 67 67 66 66 68 72 65 82 58 54 51 69 41 31 33 39 44 56 68 71 81 72 74 74 65 60 44 31 32 48 44 40 42 37 36 32 30 30 33 34 37
66 66 66 69 67 65 70 76 77 69 90 129 105 91 59 34 39 51 46 53 58 76 67 69 68 68 54 39 42 43 39 33 42 39 40 37 37 35 31 32 34 35 38
65 63 62 63 65 68 64 65 58 58 60 80 95 99 77 64 49 58 64 64 52 50 61 72 65 68 40 38 30 28 28 35 36 34 34 38 39 37 35 35 36 38 38
58 58 58 60 58 57 59 63 63 53 58 63 73 63 62 81 87 90 74 66 67 54 53 67 53 63 49 35 29 24 31 29 34 30 33 37 37 37 37 38 39 40 38
47 51 55 61 62 56 56 59 59 56 56 59 55 53 50 54 56 60 64 59 55 36 44 39 51 43 44 49 42 36 31 35 31 30 36 35 37 38 40 41 42 41 38
37 43 45 45 44 45 46 42 42 41 42 45 47 48 49 53 52 53 48 39 40 36 34 42 47 57 58 53 48 41 38 36 32 33 31 33 35 38 43 46 45 39 36
29 33 38 38 35 32 28 26 23 24 25 26 27 28 32 37 40 41 47 47 43 44 48 61 63 71 71 60 45 39 34 36 33 28 27 31 35 42 48 44 36 31 30
25 24 27 30 29 24 20 15 14 17 19 21 24 28 30 33 38 38 35 40 49 49 56 61 49 68 73 70 49 45 33 34 32 29 30 31 37 42 42 30 25 25 24
26 26 27 27 22 19 15 11 11 10 9 12 18 24 29 33 39 41 42 41 42 48 49 47 57 45 75 73 53 42 34 35 34 33 32 33 37 36 27 22 21 22 21
30 28 27 27 26 18 12 12 8 3 4 8 13 19 23 29 36 39 42 43 39 40 39 50 60 63 74 69 53 42 36 32 36 39 37 33 36 31 26 23 22 21 20
41 39 38 38 33 26 22 15 14 16 19 22 26 28 29 32 36 40 43 46 43 37 38 43 63 69 64 65 55 39 35 34 36 42 36 33 33 27 23 22 24 24 23
49 48 48 48 43 36 33 25 27 28 31 37 39 42 40 40 43 45 44 46 50 49 51 47 53 60 59 58 55 42 35 35 40 46 29 31 28 23 20 22 24 24 24
59 60 59 60 54 46 41 35 37 38 41 45 45 49 47 43 45 48 47 47 51 53 58 53 55 56 51 50 41 37 32 37 39 31 21 23 22 20 19 21 24 26 26
69 70 71 65 56 49 42 38 38 41 46 49 52 54 54 51 47 45 47 49 50 51 52 54 58 56 52 31 22 17 27 36 36 33 24 14 20 16 14 18 22 24 26
57 68 67 63 56 49 46 46 46 47 50 55 57 59 57 56 50 43 47 53 53 54 52 51 55 57 42 36 23 24 29 39 25 20 29 16 20 15 15 15 19 21 24
46 51 55 55 55 55 55 55 52 51 51 60 60 62 62 58 55 46 50 54 56 54 52 47 47 40 47 39 35 31 36 30 26 22 26 20 20 12 7 7 10 16 23
Wind_Direction_500mb
214 215 215 216 220 225 227 231 236 229 226 220 209 215 237 261 281 302 317 317 315 305 301 298 293 296 305 312 291 272 278 279 288 260 248 249 256 262 261 257 254 251 250
219 220 220 221 224 229 235 241 246 235 231 240 241 246 253 266 275 295 309 313 309 306 310 309 302 290 289 293 295 289 275 279 286 273 250 247 253 259 262 258 254 252 254
222 225 231 229 230 233 240 242 243 248 246 254 256 258 264 268 279 302 320 322 303 291 301 323 310 295 284 284 284 288 288 274 279 283 262 252 254 257 261 261 260 257 257
225 226 230 237 241 241 247 253 255 258 256 256 261 266 274 275 283 306 332 322 297 303 352 349 320 301 282 274 271 277 282 281 281 277 278 259 258 258 260 261 258 259 253
236 235 236 243 244 248 249 250 256 261 264 263 263 264 269 274 285 309 335 1 34 64 43 22 2 340 301 281 271 267 272 275 270 274 278 276 274 265 263 261 261 256 257
245 255 250 248 252 256 255 255 257 262 268 273 268 264 270 279 279 293 283 32 35 54 31 15 15 2 344 304 279 264 264 264 267 271 275 268 274 278 271 265 266 260 257
223 230 247 246 245 253 258 255 259 265 263 264 270 270 274 280 265 274 291 115 70 20 356 348 349 346 341 316 292 268 260 262 264 267 271 274 274 278 269 268 267 266 261
226 231 230 231 241 251 253 247 252 254 259 256 250 276 262 266 262 238 284 288 311 351 337 318 318 322 327 314 299 283 261 259 262 263 268 269 274 278 270 272 270 268 263
226 227 237 242 244 241 246 244 253 242 244 257 257 250 229 201 285 254 327 329 328 343 325 319 312 322 323 311 302 291 276 264 263 261 268 269 275 274 271 271 276 273 265
219 225 239 245 248 245 244 254 244 247 240 241 258 251 248 238 230 279 288 298 308 312 308 317 313 314 314 321 290 280 289 284 269 260 264 263 270 273 274 275 276 277 271
216 232 238 245 252 257 256 253 264 261 253 259 265 275 252 241 236 258 283 298 296 292 305 310 308 303 302 305 291 272 280 273 262 263 260 261 263 272 272 279 278 280 275
223 231 238 244 246 246 250 252 254 252 245 244 254 248 267 259 279 280 278 293 291 300 300 305 303 296 283 322 294 268 282 265 258 259 262 258 261 269 270 280 280 282 276
234 241 245 247 248 246 246 251 247 249 231 227 235 239 254 270 268 278 283 285 285 288 295 303 304 287 285 309 288 281 255 258 256 260 263 259 263 267 269 279 283 282 278
228 234 238 241 245 244 241 241 235 237 238 237 240 246 264 264 264 262 275 280 286 285 293 302 294 283 274 305 285 284 273 262 260 265 270 260 261 266 272 278 284 284 277
221 228 232 236 238 242 243 240 242 244 239 240 249 257 259 256 260 265 272 278 283 283 289 296 291 287 297 309 290 292 285 271 275 273 270 262 261 268 277 280 285 281 274
225 229 231 232 231 230 232 231 234 236 239 244 250 253 253 256 256 260 270 279 272 268 281 294 296 296 308 307 292 283 277 269 281 274 265 259 264 277 282 284 283 276 267
204 211 220 220 218 218 219 219 220 222 228 237 241 246 248 252 255 261 264 268 264 263 273 297 296 290 304 305 304 290 278 268 276 264 258 262 276 285 287 283 275 268 260
185 192 197 197 193 193 201 212 225 240 251 257 260 261 263 265 267 269 271 272 265 269 272 274 293 300 298 302 300 294 268 260 260 256 261 271 286 292 289 274 266 260 257
180 186 194 196 197 200 206 224 202 204 233 257 268 273 274 276 277 277 275 269 268 270 265 261 266 279 296 293 296 283 261 256 255 258 264 279 292 292 278 265 256 255 246
195 196 201 208 209 206 194 176 183 207 290 306 300 291 285 280 277 276 274 273 271 265 264 257 262 269 281 288 287 269 259 261 256 261 265 282 291 286 271 259 250 243 236
211 213 212 216 216 220 210 222 258 277 297 310 316 311 294 280 278 277 276 277 274 272 269 256 257 263 275 281 285 268 257 259 258 258 259 281 284 281 270 249 245 238 236
218 221 225 219 223 227 230 243 263 276 296 308 312 314 301 280 271 268 266 267 269 268 269 269 265 267 268 272 282 257 255 254 255 266 253 272 274 274 263 248 243 241 240
224 225 222 220 222 225 229 242 258 272 287 300 307 310 306 292 281 272 266 264 263 262 263 267 265 267 270 267 272 256 252 259 265 248 254 263 269 273 260 251 243 246 249
230 223 218 221 224 227 236 246 261 273 284 293 301 305 303 298 286 278 266 267 269 270 266 262 259 266 264 247 230 263 285 259 251 236 244 247 262 266 266 265 254 251 253
223 219 221 222 225 234 241 253 266 275 282 290 297 301 299 296 289 275 264 266 268 271 273 268 259 258 230 208 210 230 268 239 221 226 238 226 257 259 263 266 271 268 258
217 219 225 230 236 240 247 256 264 273 281 290 297 299 297 296 287 272 260 265 270 274 283 277 257 238 195 203 215 225 232 221 215 226 240 220 239 225 252 274 283 285 266
Wind_Speed_850mb
63 57 54 48 43 38 32 26 21 17 16 17 15 13 10 11 11 12 14 15 17 21 20 20 20 17 15 14 13 17 17 20 20 24 27 26 24 25 26 25 25 25 30
66 63 59 52 47 42 36 30 25 25 23 23 22 19 15 15 15 17 18 18 17 19 20 22 23 20 19 16 17 17 19 21 21 22 28 27 28 28 29 30 29 28 28
70 65 60 55 51 46 41 37 32 29 27 27 26 24 22 22 22 17 19 23 23 19 18 25 28 28 25 22 22 22 22 22 24 24 26 28 29 30 32 33 33 33 29
74 69 65 59 53 46 44 42 39 40 36 34 30 27 29 28 24 20 26 29 20 12 13 26 31 32 32 28 25 25 24 22 23 23 21 26 32 33 34 34 36 37 35
71 68 64 60 54 53 50 47 48 48 45 40 37 34 32 31 26 19 18 14 12 13 25 41 28 30 30 33 33 29 27 24 23 23 24 23 26 34 37 38 37 39 37
62 71 67 60 56 62 58 54 53 50 46 46 41 38 34 32 25 20 13 3 15 19 32 53 43 43 35 37 42 35 33 32 28 28 28 25 26 32 36 37 36 36 38
85 93 75 68 59 65 67 60 50 49 46 43 37 30 28 28 21 17 13 1 8 11 29 47 62 63 60 43 40 39 37 35 35 34 32 29 28 32 32 34 39 39 39
79 81 71 73 60 49 67 71 60 51 49 44 28 26 11 14 19 13 23 25 21 27 36 46 55 56 73 50 41 36 40 36 36 35 34 34 29 29 34 35 39 40 41
75 74 70 64 58 62 58 50 52 54 45 38 34 26 10 9 15 10 12 17 27 34 39 51 44 46 64 49 48 39 39 34 35 39 36 37 31 30 29 32 36 40 42
65 61 61 60 60 67 70 65 59 49 43 38 37 41 29 29 12 19 31 40 48 51 62 66 68 55 63 60 41 34 36 40 39 40 37 38 34 29 28 29 34 38 38
68 65 67 67 66 66 68 72 65 82 58 54 51 69 41 31 33 39 44 56 68 71 81 72 74 74 65 60 44 31 32 48 44 40 42 37 36 32 30 30 33 34 37
66 66 66 69 67 65 70 76 77 69 90 129 105 91 59 34 39 51 46 53 58 76 67 69 68 68 54 39 42 43 39 33 42 39 40 37 37 35 31 32 34 35 38
65 63 62 63 65 68 64 65 58 58 60 80 95 99 77 64 49 58 64 64 52 50 61 72 65 68 40 38 30 28 28 35 36 34 34 38 39 37 35 35 36 38 38
58 58 58 60 58 57 59 63 63 53 58 63 73 63 62 81 87 90 74 66 67 54 53 67 53 63 49 35 29 24 31 29 34 30 33 37 37 37 37 38 39 40 38
47 51 55 61 62 56 56 59 59 56 56 59 55 53 50 54 56 60 64 59 55 36 44 39 51 43 44 49 42 36 31 35 31 30 36 35 37 38 40 41 42 41 38
37 43 45 45 44 45 46 42 42 41 42 45 47 48 49 53 52 53 48 39 40 36 34 42 47 57 58 53 48 41 38 36 32 33 31 33 35 38 43 46 45 39 36
29 33 38 38 35 32 28 26 23 24 25 26 27 28 32 37 40 41 47 47 43 44 48 61 63 71 71 60 45 39 34 36 33 28 27 31 35 42 48 44 36 31 30
25 24 27 30 29 24 20 15 14 17 19 21 24 28 30 33 38 38 35 40 49 49 56 61 49 68 73 70 49 45 33 34 32 29 30 31 37 42 42 30 25 25 24
26 26 27 27 22 19 15 11 11 10 9 12 18 24 29 33 39 41 42 41 42 48 49 47 57 45 75 73 53 42 34 35 34 33 32 33 37 36 27 22 21 22 21
30 28 27 27 26 18 12 12 8 3 4 8 13 19 23 29 36 39 42 43 39 40 39 50 60 63 74 69 53 42 36 32 36 39 37 33 36 31 26 23 22 21 20
41 39 38 38 33 26 22 15 14 16 19 22 26 28 29 32 36 40 43 46 43 37 38 43 63 69 64 65 55 39 35 34 36 42 36 33 33 27 23 22 24 24 23
49 48 48 48 43 36 33 25 27 28 31 37 39 42 40 40 43 45 44 46 50 49 51 47 53 60 59 58 55 42 35 35 40 46 29 31 28 23 20 22 24 24 24
59 60 59 60 54 46 41 35 37 38 41 45 45 49 47 43 45 48 47 47 51 53 58 53 55 56 51 50 41 37 32 37 39 31 21 23 22 20 19 21 24 26 26
69 70 71 65 56 49 42 38 38 41 46 49 52 54 54 51 47 45 47 49 50 51 52 54 58 56 52 31 22 17 27 36 36 33 24 14 20 16 14 18 22 24 26
57 68 67 63 56 49 46 46 46 47 50 55 57 59 57 56 50 43 47 53 53 54 52 51 55 57 42 36 23 24 29 39 25 20 29 16 20 15 15 15 19 21 24
46 51 55 55 55 55 55 55 52 51 51 60 60 62 62 58 55 46 50 54 56 54 52 47 47 40 47 39 35 31 36 30 26 22 26 20 20 12 7 7 10 16 23
Wind_Direction_850mb
214 215 215 216 220 225 227 231 236 229 226 220 209 215 237 261 281 302 317 317 315 305 301 298 293 296 305 312 291 272 278 279 288 260 248 249 256 262 261 257 254 251 250
219 220 220 221 224 229 235 241 246 235 231 240 241 246 253 266 275 295 309 313 309 306 310 309 302 290 289 293 295 289 275 279 286 273 250 247 253 259 262 258 254 252 254
222 225 231 229 230 233 240 242 243 248 246 254 256 258 264 268 279 302 320 322 303 291 301 323 310 295 284 284 284 288 288 274 279 283 262 252 254 257 261 261 260 257 257
225 226 230 237 241 241 247 253 255 258 256 256 261 266 274 275 283 306 332 322 297 303 352 349 320 301 282 274 271 277 282 281 281 277 278 259 258 258 260 261 258 259 253
236 235 236 243 244 248 249 250 256 261 264 263 263 264 269 274 285 309 335 1 34 64 43 22 2 340 301 281 271 267 272 275 270 274 278 276 274 265 263 261 261 256 257
245 255 250 248 252 256 255 255 257 262 268 273 268 264 270 279 279 293 283 32 35 54 31 15 15 2 344 304 279 264 264 264 267 271 275 268 274 278 271 265 266 260 257
223 230 247 246 245 253 258 255 259 265 263 264 270 270 274 280 265 274 291 115 70 20 356 348 349 346 341 316 292 268 260 262 264 267 271 274 274 278 269 268 267 266 261
226 231 230 231 241 251 253 247 252 254 259 256 250 276 262 266 262 238 284 288 311 351 337 318 318 322 327 314 299 283 261 259 262 263 268 269 274 278 270 272 270 268 263
226 227 237 242 244 241 246 244 253 242 244 257 257 250 229 201 285 254 327 329 328 343 325 319 312 322 323 311 302 291 276 264 263 261 268 269 275 274 271 271 276 273 265
219 225 239 245 248 245 244 254 244 247 240 241 258 251 248 238 230 279 288 298 308 312 308 317 313 314 314 321 290 280 289 284 269 260 264 263 270 273 274 275 276 277 271
216 232 238 245 252 257 256 253 264 261 253 259 265 275 252 241 236 258 283 298 296 292 305 310 308 303 302 305 291 272 280 273 262 263 260 261 263 272 272 279 278 280 275
223 231 238 244 246 246 250 252 254 252 245 244 254 248 267 259 279 280 278 293 291 300 300 305 303 296 283 322 294 268 282 265 258 259 262 258 261 269 270 280 280 282 276
234 241 245 247 248 246 246 251 247 249 231 227 235 239 254 270 268 278 283 285 285 288 295 303 304 287 285 309 288 281 255 258 256 260 263 259 263 267 269 279 283 282 278
228 234 238 241 245 244 241 241 235 237 238 237 240 246 264 264 264 262 275 280 286 285 293 302 294 283 274 305 285 284 273 262 260 265 270 260 261 266 272 278 284 284 277
221 228 232 236 238 242 243 240 242 244 239 240 249 257 259 256 260 265 272 278 283 283 289 296 291 287 297 309 290 292 285 271 275 273 270 262 261 268 277 280 285 281 274
225 229 231 232 231 230 232 231 234 236 239 244 250 253 253 256 256 260 270 279 272 268 281 294 296 296 308 307 292 283 277 269 281 274 265 259 264 277 282 284 283 276 267
204 211 220 220 218 218 219 219 220 222 228 237 241 246 248 252 255 261 264 268 264 263 273 297 296 290 304 305 304 290 278 268 276 264 258 262 276 285 287 283 275 268 260
185 192 197 197 193 193 201 212 225 240 251 257 260 261 263 265 267 269 271 272 265 269 272 274 293 300 298 302 300 294 268 260 260 256 261 271 286 292 289 274 266 260 257
180 186 194 196 197 200 206 224 202 204 233 257 268 273 274 276 277 277 275 269 268 270 265 261 266 279 296 293 296 283 261 256 255 258 264 279 292 292 278 265 256 255 246
195 196 201 208 209 206 194 176 183 207 290 306 300 291 285 280 277 276 274 273 271 265 264 257 262 269 281 288 287 269 259 261 256 261 265 282 291 286 271 259 250 243 236
211 213 212 216 216 220 210 222 258 277 297 310 316 311 294 280 278 277 276 277 274 272 269 256 257 263 275 281 285 268 257 259 258 258 259 281 284 281 270 249 245 238 236
218 221 225 219 223 227 230 243 263 276 296 308 312 314 301 280 271 268 266 267 269 268 269 269 265 267 268 272 282 257 255 254 255 266 253 272 274 274 263 248 243 241 240
224 225 222 220 222 225 229 242 258 272 287 300 307 310 306 292 281 272 266 264 263 262 263 267 265 267 270 267 272 256 252 259 265 248 254 263 269 273 260 251 243 246 249
230 223 218 221 224 227 236 246 261 273 284 293 301 305 303 298 286 278 266 267 269 270 266 262 259 266 264 247 230 263 285 259 251 236 244 247 262 266 266 265 254 251 253
223 219 221 222 225 234 241 253 266 275 282 290 297 301 299 296 289 275 264 266 268 271 273 268 259 258 230 208 210 230 268 239 221 226 238 226 257 259 263 266 271 268 258
217 219 225 230 236 240 247 256 264 273 281 290 297 299 297 296 287 272 260 265 270 274 283 277 257 238 195 203 215 225 232 221 215 226 240 220 239 225 252 274 283 285 266